BEIDOU-3 G2

Last updated on Oct. 30, 2020, 5:57 a.m. UTC

1 45344U 20017A   20303.87642664 -.00000144  00000-0  00000-0 0  9991
2 45344   2.7566 330.8519 0001863 228.3264 235.0347  1.00272225  2649
UTC
Height (km)
Latitude
Longitude
Inclination
Orbital Period
UTC large
Height (km)
Speed (km/s)
/
Latitude / Longitude
Inclination (degrees)
Orbital Period (minutes)
Azimuth
Elevation
Range (km)
Doppler Factor
iOS Compass Heading
iOS Angle

Next 30 passes for location: Hong Kong

Rise time Rise Azimuth (degrees) Set time Set Azimuth (degrees) Duration Max altitude (degrees)

No matching passes for this satellites